This demonstration page uses our WeatherBlox Daily Observations layout. Learn more.

Left ArrowRight Arrow

Hourly Observations for November 8, 2019

Temp ( °F °C ) Dew Point ( °F °C ) Humidity (%) Winds ( mph kmh ) Pressure ( in mb ) Visibility ( mi km ) Precip ( " mm )
12:37 am 00:37 Cloudy 56 13.3 54 12.2 93 93 NW 8 13 30.11 1020 10 16 0.00 0.00
12:53 am 00:53 Cloudy 56 13.3 52 11.1 87 87 NNW 9 15 30.10 1019 10 16 0.00 0.00
1:04 am 01:04 Cloudy 55 12.8 52 11.1 90 90 NNW 8 13 30.11 1020 10 16 0.00 0.00
1:53 am 01:53 Cloudy 54 12.2 51 10.6 90 90 NNW 9 15 30.09 1019 10 16 0.00 0.00
2:53 am 02:53 Cloudy 52 11.1 49 9.4 89 89 NNW 10 17 30.11 1020 10 16 0.00 0.00
3:16 am 03:16 Cloudy 51 10.6 49 9.4 92 92 NNW 8 13 30.13 1020 10 16 0.00 0.00
3:35 am 03:35 Cloudy 51 10.6 48 8.9 89 89 NNW 8 13 30.14 1021 10 16 0.00 0.00
3:53 am 03:53 Mostly Cloudy 51 10.6 47 8.3 86 86 NNW 9 15 30.12 1020 10 16 0.00 0.00
4:53 am 04:53 Mostly Cloudy 49 9.4 45 7.2 86 86 NNW 10 17 30.13 1020 10 16 0.00 0.00
5:53 am 05:53 Mostly Cloudy 47 8.3 43 6.1 86 86 N 9 15 30.16 1021 10 16 0.00 0.00
6:18 am 06:18 Mostly Cloudy 47 8.3 42 5.6 83 83 NNW 12 19 30.20 1023 10 16 0.00 0.00
6:53 am 06:53 Partly Cloudy 46 7.8 40 4.4 79 79 N 8 13 30.19 1022 10 16 0.00 0.00
7:09 am 07:09 Mostly Cloudy 45 7.2 40 4.4 83 83 NNW 9 15 30.22 1023 10 16 0.00 0.00
7:33 am 07:33 Mostly Cloudy 45 7.2 39 3.9 80 80 NNW 10 17 30.24 1024 10 16 0.00 0.00
7:53 am 07:53 Partly Cloudy 43 6.1 37 2.8 80 80 NNW 13 20 30.21 1023 10 16 0.00 0.00
8:53 am 08:53 Sunny 43 6.1 37 2.8 80 80 VRB 7 11 30.23 1024 10 16 0.00 0.00
9:53 am 09:53 Sunny 45 7.2 36 2.2 71 71 NW 10 17 30.24 1024 10 16 0.00 0.00
10:53 am 10:53 Sunny 48 8.9 36 2.2 63 63 NNW 9 15 30.23 1024 10 16 0.00 0.00
11:53 am 11:53 Sunny 50 10 35 1.7 57 57 NW 10 17 30.21 1023 10 16 0.00 0.00
12:53 pm 12:53 Sunny 51 10.6 34 1.1 52 52 VRB 7 11 30.18 1022 10 16 0.00 0.00
1:53 pm 13:53 Sunny 51 10.6 34 1.1 52 52 N 9 15 30.17 1022 10 16 0.00 0.00
2:53 pm 14:53 Sunny 50 10 33 0.6 52 52 N 8 13 30.17 1022 10 16 0.00 0.00
3:53 pm 15:53 Sunny 49 9.4 33 0.6 55 55 NW 8 13 30.17 1022 10 16 0.00 0.00
4:53 pm 16:53 Sunny 48 8.9 33 0.6 56 56 NNW 8 13 30.18 1022 10 16 0.00 0.00
5:53 pm 17:53 Clear 46 7.8 31 -0.6 56 56 NNW 5 7 30.21 1023 10 16 0.00 0.00
6:53 pm 18:53 Clear 44 6.7 32 0 63 63 Calm 30.23 1024 10 16 0.00 0.00
7:53 pm 19:53 Clear 43 6.1 30 -1.1 60 60 N 3 6 30.24 1024 10 16 0.00 0.00
8:53 pm 20:53 Clear 41 5 29 -1.7 62 62 Calm 30.24 1024 10 16 0.00 0.00
11:53 pm 23:53 Clear 35 1.7 32 0 89 89 Calm 30.25 1025 10 16 0.00 0.00

Powered by AerisWeather